CAPE
0 0 0 0 0 0 0 0 0 0 0 0 0 0 0 0 0 0 0 0 0 0 0 0 0 0 0 0 0 0 0 0
0 0 0 0 0 0 0 0 0 0 0 0 0 0 0 0 0 0 0 0 0 0 0 0 0 0 0 0 0 0 0 0
0 0 0 0 0 0 0 0 0 0 0 0 0 0 0 0 0 0 0 0 0 0 0 0 0 0 0 0 0 0 0 0
0 0 0 0 0 0 0 0 0 0 0 0 0 0 0 0 0 0 0 0 0 0 0 0 0 0 1 1 0 1 0 0
0 0 0 0 0 0 0 0 0 0 0 0 0 0 0 0 0 0 0 0 0 0 0 0 0 1 0 0 0 0 1 0
0 0 0 0 0 0 0 0 0 0 0 0 0 0 0 0 0 0 0 0 0 0 0 0 0 0 0 0 0 1 0 0
0 0 0 0 0 0 0 0 0 0 0 0 0 0 0 0 0 0 0 0 0 0 0 0 0 2 2 0 0 0 0 0
0 0 0 0 0 0 0 0 0 0 0 0 0 0 0 0 0 0 0 0 0 0 0 0 0 1 2 1 0 0 0 0
0 0 0 0 0 0 0 0 0 0 0 0 0 0 0 0 0 0 0 0 0 0 0 0 0 3 8 1 0 0 0 0
0 0 0 0 0 0 0 0 0 0 0 0 0 0 0 0 0 0 0 0 0 0 0 0 0 2 5 1 0 0 0 0
0 0 0 0 0 0 0 0 0 0 0 0 0 0 0 0 0 0 0 0 0 0 0 0 0 0 1 0 0 0 0 0
0 0 0 0 0 0 0 0 0 0 0 0 0 0 0 0 0 0 0 0 0 0 0 0 0 0 3 2 0 0 0 0
0 0 0 0 0 0 0 0 0 0 0 0 0 0 0 0 0 0 0 0 0 0 0 0 0 0 2 3 1 1 0 0
0 0 0 0 0 0 0 0 0 0 0 0 0 0 0 0 0 0 0 0 0 0 0 0 0 0 3 3 3 0 0 0
0 0 0 0 0 0 0 0 0 0 0 0 0 0 0 0 0 0 0 0 0 0 0 0 0 0 0 0 0 0 0 0
0 0 0 0 0 0 0 0 0 0 0 0 0 0 0 0 0 0 0 0 0 0 0 0 0 0 1 0 0 0 0 0
0 0 0 0 0 0 0 0 0 0 0 0 0 0 0 0 0 0 0 0 0 0 0 0 0 5 1 1 0 0 0 0
0 0 0 0 0 0 0 0 0 0 0 0 0 0 0 0 0 0 0 0 0 0 0 0 0 2 1 0 0 0 0 0
0 0 0 0 0 0 0 0 0 0 0 0 0 0 0 0 0 0 0 0 0 0 0 0 0 0 0 0 0 0 0 0
0 0 0 0 0 0 0 0 0 0 0 0 0 0 0 0 0 0 0 0 0 0 0 0 0 0 0 0 0 0 0 0
CIN
-0 -0 -0 -0 -0 -0 -0 -0 -0 -0 -0 -0 -0 -0 -0 -0 -0 -0 -0 -0 -0 -0 -0 -0 -0 -0 -0 -0 -0 -0 -0 -0
-0 -0 -0 -0 -0 -0 -0 -0 -0 -0 -0 -0 -0 -0 -0 -0 -0 -0 -0 -0 -0 -0 -0 -0 -0 -0 -0 -0 -0 -0 -0 -0
-0 -0 -0 -0 -0 -0 -0 -0 -0 -0 -0 -0 -0 -0 -0 -0 -0 -0 -0 -0 -0 -0 -0 -0 -0 -0 -0 -0 -0 -0 -0 -0
-0 -0 -0 -0 -0 -0 -0 -0 -0 -0 -0 -0 -0 -0 -0 -0 -0 -0 -0 -0 -0 -0 -0 -0 -0 -0 -0 -0 -0 -0 -0 -0
-0 -0 -0 -0 -0 -0 -0 -0 -0 -0 -0 -0 -0 -0 -0 -0 -0 -0 -0 -0 -0 -0 -0 -0 -0 -1 -0 -0 -0 -0 -0 -0
-0 -0 -0 -0 -0 -0 -0 -0 -0 -0 -0 -0 -0 -0 -0 -0 -0 -0 -0 -0 -0 -0 -0 -0 -0 -1 -1 -1 -0 -0 -0 -0
-0 -0 -0 -0 -0 -0 -0 -0 -0 -0 -0 -0 -0 -0 -0 -0 -0 -0 -0 -0 -0 -0 -0 -0 -0 -2 -1 -1 -0 -0 -0 -0
-0 -0 -0 -0 -0 -0 -0 -0 -0 -0 -0 -0 -0 -0 -0 -0 -0 -0 -0 -0 -0 -0 -0 -0 -0 -2 -2 -1 -2 -1 -0 -0
-0 -0 -0 -0 -0 -0 -0 -0 -0 -0 -0 -0 -0 -0 -0 -0 -0 -0 -0 -0 -0 -0 -0 -0 -0 -1 -1 -1 -0 -0 -0 -0
-0 -0 -0 -0 -0 -0 -0 -0 -0 -0 -0 -0 -0 -0 -0 -0 -0 -0 -0 -0 -0 -0 -0 -0 -0 -0 -2 -0 -0 -0 -0 -0
-0 -0 -0 -0 -0 -0 -0 -0 -0 -0 -0 -0 -0 -0 -0 -0 -0 -0 -0 -0 -0 -0 -0 -0 -0 -0 -3 -3 -0 -0 -0 -0
-0 -0 -0 -0 -0 -0 -0 -0 -0 -0 -0 -0 -0 -0 -0 -0 -0 -0 -0 -0 -0 -0 -0 -0 -0 -0 -1 -3 -0 -0 -0 -0
-0 -0 -0 -0 -0 -0 -0 -0 -0 -0 -0 -0 -0 -0 -0 -0 -0 -0 -0 -0 -0 -0 -0 -0 -0 -0 -1 -1 -3 -2 -0 -0
-0 -0 -0 -0 -0 -0 -0 -0 -0 -0 -0 -0 -0 -0 -0 -0 -0 -0 -0 -0 -0 -0 -0 -0 -0 -0 -0 -0 -0 -2 -1 -0
-0 -0 -0 -0 -0 -0 -0 -0 -0 -0 -0 -0 -0 -0 -0 -0 -0 -0 -0 -0 -0 -0 -0 -0 -0 -0 -0 -0 -0 -0 -0 -0
-0 -0 -0 -0 -0 -0 -0 -0 -0 -0 -0 -0 -0 -0 -0 -0 -0 -0 -0 -0 -0 -0 -0 -0 -0 -0 -3 -3 -0 -1 -1 -0
-0 -0 -0 -0 -0 -0 -0 -0 -0 -0 -0 -0 -0 -0 -0 -0 -0 -0 -0 -0 -0 -0 -0 -0 -0 -1 -1 -0 -0 -0 -0 -0
-0 -0 -0 -0 -0 -0 -0 -0 -0 -0 -0 -0 -0 -0 -0 -0 -0 -0 -0 -0 -0 -0 -0 -0 -0 -0 -0 -0 -0 -0 -0 -0
-0 -0 -0 -0 -0 -0 -0 -0 -0 -0 -0 -0 -0 -0 -0 -0 -0 -0 -0 -0 -0 -0 -0 -0 -0 -0 -0 -0 -0 -0 -0 -0
-0 -0 -0 -0 -0 -0 -0 -0 -0 -0 -0 -0 -0 -0 -0 -0 -0 -0 -0 -0 -0 -0 -0 -0 -0 -0 -0 -0 -0 -0 -0 -0
Wind_Speed
5 7 9 13 16 20 22 24 26 28 30 30 32 32 33 35 36 35 33 32 31 30 31 33 34 34 35 31 29 30 29 27
4 5 7 11 15 18 21 23 26 28 30 30 31 32 33 35 36 34 31 32 31 29 29 30 33 33 34 33 28 28 29 28
3 4 6 10 13 17 19 23 25 27 29 30 30 32 33 35 35 34 32 30 29 28 28 29 29 32 34 33 29 27 28 29
3 2 5 9 12 16 19 21 23 25 28 29 30 32 33 34 35 34 32 32 30 29 29 28 28 30 32 32 30 26 25 27
4 2 3 7 10 14 17 19 22 24 27 28 29 31 32 33 34 33 32 32 30 30 29 27 26 29 31 31 30 26 24 24
4 2 2 5 9 12 15 18 20 23 25 26 28 29 31 33 34 34 33 33 30 31 29 29 25 28 30 30 27 26 24 23
6 3 2 2 6 10 13 16 18 21 24 25 28 29 31 33 35 34 35 34 32 32 30 30 26 26 30 29 26 26 24 23
10 7 3 0 4 7 11 14 17 20 22 24 27 29 31 32 35 36 36 34 33 32 30 29 26 25 31 29 26 27 24 23
9 7 3 2 4 7 10 12 15 18 21 23 25 27 29 31 34 36 36 35 33 32 30 29 29 27 28 30 27 26 24 23
10 7 5 3 4 6 8 10 13 17 19 21 23 26 28 31 32 33 35 36 35 32 33 31 30 32 32 30 28 27 26 23
10 8 6 4 4 5 6 8 12 15 17 19 21 25 27 28 30 31 33 35 35 35 33 33 31 31 34 33 30 28 27 24
10 10 7 5 4 4 5 6 10 13 15 17 19 23 25 26 28 30 32 34 36 36 34 33 31 30 35 34 30 28 27 25
10 9 7 5 4 3 4 6 9 12 14 16 19 21 24 26 28 29 31 33 35 36 35 33 31 29 28 29 30 28 26 25
11 9 6 5 4 3 5 6 8 10 12 15 17 20 22 25 26 29 30 32 33 34 35 34 31 26 26 32 12 22 27 26
10 9 7 5 4 4 6 5 6 9 11 13 15 18 20 22 24 27 29 30 31 32 34 33 30 29 30 30 36 33 30 29
10 8 7 6 4 5 6 5 5 7 9 11 13 15 18 20 21 23 25 26 29 29 32 33 33 32 36 37 35 35 33 26
8 6 6 5 4 5 6 5 4 5 7 9 11 12 15 18 21 22 24 26 27 28 30 30 31 33 36 38 34 35 30 26
10 6 6 6 6 5 5 4 3 3 5 7 9 11 13 16 19 21 23 24 26 29 30 31 32 32 34 35 35 34 30 26
8 6 6 6 6 5 5 3 1 3 5 7 8 10 12 14 16 19 22 25 26 27 28 30 31 31 32 33 33 33 31 24
7 6 6 6 5 6 5 3 0 3 5 7 9 10 11 13 15 17 19 21 23 25 26 28 29 29 30 31 32 30 28 24
Wind_Direction
358 6 13 10 11 14 15 15 17 17 17 16 16 15 13 12 9 8 4 2 3 6 5 6 5 8 347 331 323 326 324 319
349 5 12 10 12 14 15 16 16 16 17 17 16 16 16 14 13 13 12 7 4 5 5 4 1 4 355 342 319 321 327 323
334 358 7 8 12 14 16 15 17 17 17 18 20 19 17 15 15 16 15 15 12 9 6 4 2 360 352 337 323 317 324 327
317 326 355 4 10 12 14 15 18 17 19 20 21 20 18 17 17 18 19 18 18 15 9 6 3 356 345 336 328 315 317 326
297 295 345 2 9 13 15 20 19 19 21 22 22 21 21 20 21 21 23 22 21 19 15 13 9 356 339 332 327 316 313 317
250 254 326 3 9 14 17 19 22 21 23 24 24 25 24 23 23 23 24 24 26 22 22 19 20 3 333 327 321 319 312 311
228 222 229 352 11 16 19 22 24 24 25 26 26 26 25 23 22 25 26 26 27 27 26 24 31 21 334 329 319 325 310 308
208 202 203 158 29 23 25 28 28 27 28 28 28 27 25 25 23 23 26 28 29 30 29 28 32 32 350 334 326 333 304 307
201 192 184 106 45 38 36 34 32 30 30 31 30 29 27 26 25 23 25 27 30 30 32 31 26 29 25 347 335 338 310 303
191 181 162 134 79 51 42 41 36 33 33 34 34 31 30 28 27 26 25 26 29 33 31 31 26 16 10 7 339 328 322 301
178 168 159 136 101 60 54 51 39 37 37 38 37 33 31 31 30 30 28 27 28 31 33 32 30 22 6 352 342 331 316 306
174 173 167 144 113 74 71 60 49 45 42 42 40 36 34 35 32 31 29 27 26 28 32 33 33 29 16 353 340 326 318 307
172 170 161 150 128 99 88 73 56 48 44 42 40 37 34 35 33 32 30 28 26 26 29 33 34 34 35 24 335 324 315 307
169 164 167 159 139 118 107 85 62 47 43 41 39 37 35 34 34 31 30 29 27 25 25 29 33 36 37 20 312 308 321 312
167 172 177 167 149 124 119 92 65 46 43 41 38 36 33 34 35 31 30 29 27 25 24 27 32 32 30 28 355 341 342 335
175 182 180 170 159 137 133 108 69 44 40 39 37 34 30 30 32 32 30 31 28 26 23 24 26 28 21 16 16 359 357 8
183 189 182 177 169 152 142 122 78 42 35 37 34 33 31 25 27 30 28 27 29 27 23 25 27 25 22 18 24 16 20 29
186 193 186 185 180 165 152 138 105 48 40 33 30 28 25 23 21 22 23 26 27 25 23 21 23 26 25 25 24 27 29 40
190 197 193 190 190 173 161 156 95 25 30 26 26 28 23 18 19 19 18 16 19 24 23 20 21 25 26 27 30 32 34 47
197 209 201 206 204 177 174 178 157 6 13 16 18 20 19 14 12 14 14 15 16 18 21 20 19 24 27 30 33 38 44 50